Location: Schommer Observatory
(40.5200°N, 74.4500°W)
Time: 19:55:41
(UTC-04:00)

ISS - Pass Details

Date: 22 May 2018
Orbit: 402 x 407 km, 51.6° (Epoch: 26 May)

Event Time Altitude Azimuth Distance (km) Brightness Sun altitude
Rises 21:33:05 0° 240° (WSW) 2,309 0.3 -13.1°
Reaches altitude 10° 21:35:11 10° 244° (WSW) 1,452 -0.7 -13.4°
Maximum altitude 21:38:24 60° 326° (NW) 464 -3.3 -13.8°
Drops below altitude 10° 21:41:38 10° 48° (NE) 1,458 -1.1 -14.3°
Sets 21:43:44 0° 52° (NE) 2,319 -0.1 -14.5°
